Temperature
19 18 17 16 16 15 14 14 13 13 12 12 12 11 11 11 11 10 10 10 10 10 10 9 9 9 9 9 9 8 8 8 8 8 8 9 8 7 7 7 7 6 6
19 18 17 16 15 15 14 14 13 13 12 12 12 12 11 11 11 10 10 10 10 10 9 9 9 9 9 9 8 8 8 8 7 6 6 6 7 6 6 6 6 6 5
19 18 17 16 15 15 14 14 13 13 13 12 12 11 11 11 10 10 10 10 10 9 9 9 9 9 9 9 8 8 7 7 7 6 5 4 4 5 5 5 5 5 4
19 18 17 16 15 15 14 14 13 13 13 12 12 11 11 11 11 10 10 10 10 9 9 9 9 9 9 8 8 8 7 7 6 6 5 4 3 3 3 4 4 4 4
18 18 17 16 15 14 14 14 13 13 13 12 12 11 11 11 11 10 10 10 10 10 9 9 9 9 8 8 8 7 7 6 6 5 5 4 4 3 2 2 3 4 3
17 17 16 15 15 14 14 13 13 13 12 12 12 11 11 11 10 10 10 10 10 10 9 9 9 9 8 8 7 7 7 6 5 5 4 4 3 3 2 1 2 2 3
17 16 16 15 14 14 14 13 13 13 12 12 12 11 11 10 10 10 10 10 10 10 9 9 9 8 8 8 7 7 6 6 5 5 4 4 3 2 2 1 1 1 1
17 16 16 15 14 14 14 13 13 13 12 12 12 11 11 10 10 10 10 10 10 10 9 9 9 8 8 7 7 6 6 5 5 4 4 3 3 2 2 1 0 -0 -0
17 16 16 15 15 14 14 14 13 13 12 12 12 11 11 10 10 10 10 9 9 9 9 9 8 8 7 7 6 6 5 5 4 4 3 3 2 2 1 1 -0 -1 -2
17 16 16 15 15 14 14 13 13 12 12 12 11 11 10 10 10 9 9 9 9 9 9 8 8 8 7 7 6 5 5 4 4 3 3 2 2 1 1 0 -0 -1 -2
17 16 16 15 15 14 13 13 12 12 11 11 11 10 10 10 9 9 9 9 9 8 8 8 8 7 7 6 5 5 4 4 3 3 2 2 1 1 0 -0 -1 -1 -2
17 16 15 15 14 14 13 12 12 11 11 11 10 10 10 9 9 9 9 9 8 8 8 7 7 7 6 6 5 4 4 3 3 2 2 1 1 0 -0 -1 -1 -2 -2
17 16 15 14 14 13 13 12 12 11 11 10 10 9 9 9 9 9 8 8 8 8 7 7 7 6 5 5 4 4 3 3 2 2 1 1 0 -0 -1 -1 -2 -2 -3
16 15 14 14 13 13 12 12 11 11 10 10 9 9 9 9 8 8 8 7 7 7 7 6 6 5 5 4 4 3 3 2 2 1 1 0 -0 -1 -1 -2 -2 -3 -3
16 15 14 13 13 12 12 11 11 10 10 9 9 9 9 8 8 7 7 7 6 6 6 6 5 5 4 4 3 3 2 1 1 1 0 -0 -1 -1 -2 -3 -3 -3 -4
16 15 14 13 13 12 12 11 11 10 10 9 9 8 8 8 7 7 6 6 6 6 5 5 5 4 4 3 3 2 1 1 0 -0 -1 -1 -2 -2 -3 -3 -3 -4 -4
15 14 14 13 13 12 12 11 11 10 10 9 8 8 8 7 7 6 6 6 5 5 5 4 4 3 3 3 2 1 1 0 -0 -1 -1 -2 -2 -3 -3 -4 -4 -4 -4
14 14 13 13 12 12 11 11 10 10 9 9 8 8 7 7 6 6 5 5 5 4 4 4 3 3 3 2 1 1 -0 -1 -1 -1 -2 -2 -3 -3 -4 -4 -4 -5 -5
14 14 13 13 12 11 11 10 10 9 9 8 8 7 6 6 5 5 5 4 4 3 3 3 3 2 2 1 0 -0 -1 -1 -2 -2 -3 -3 -4 -4 -4 -5 -5 -5 -5
14 13 13 12 11 11 10 10 9 9 8 8 7 6 6 5 5 4 4 3 3 3 2 2 2 1 1 0 -0 -1 -2 -2 -2 -3 -3 -4 -4 -5 -5 -5 -6 -6 -6
13 12 12 11 11 10 9 9 8 8 7 7 6 6 5 5 4 4 3 3 2 2 1 1 1 0 -0 -1 -1 -2 -2 -3 -3 -4 -4 -4 -5 -5 -6 -6 -6 -6 -6
12 11 11 10 10 9 9 8 7 7 6 6 5 5 4 4 3 3 2 2 1 1 1 0 -0 -1 -1 -2 -2 -3 -3 -4 -4 -4 -5 -5 -6 -6 -6 -6 -6 -6 -6
11 10 10 9 9 8 8 7 7 6 6 5 5 4 4 3 3 2 1 1 0 0 -0 -1 -1 -1 -2 -2 -3 -4 -4 -5 -5 -5 -5 -6 -6 -6 -7 -7 -7 -7 -7
10 9 9 8 8 7 7 6 6 5 5 4 4 3 3 2 2 1 1 0 -0 -1 -1 -2 -2 -2 -3 -3 -4 -4 -5 -5 -6 -6 -6 -6 -7 -7 -7 -7 -7 -7 -7
9 8 8 7 7 6 6 5 5 5 4 4 3 2 2 1 1 0 -0 -1 -1 -2 -2 -3 -3 -3 -4 -4 -5 -5 -5 -6 -6 -6 -7 -7 -7 -7 -8 -8 -8 -8 -8
8 7 7 6 6 5 5 4 4 4 3 3 2 2 1 1 0 -1 -1 -2 -2 -3 -3 -3 -4 -4 -5 -5 -5 -6 -6 -6 -7 -7 -7 -8 -8 -8 -8 -9 -8 -8 -8
Wind_Speed
10 10 11 11 10 9 10 11 11 10 8 7 7 6 6 5 4 6 8 9 8 7 5 2 1 1 1 0 1 1 3 3 3 4 5 6 6 4 2 2 3 4 8
8 10 10 10 11 10 10 11 12 11 9 8 7 6 6 5 4 5 7 9 8 7 5 3 2 2 1 1 1 1 1 2 2 2 3 5 5 4 4 4 4 4 6
8 10 11 11 10 10 11 10 11 11 10 9 7 6 4 4 4 5 4 6 8 7 6 5 3 3 2 2 1 1 1 2 2 0 0 1 4 5 5 5 4 4 5
6 9 11 11 11 10 10 10 10 11 10 10 9 9 7 6 6 5 5 5 8 8 8 6 4 3 2 3 2 2 1 1 2 2 2 3 3 3 5 5 5 6 7
5 7 10 11 10 9 9 9 10 10 10 10 11 10 7 6 5 6 7 7 5 7 7 7 5 4 3 3 3 2 2 2 3 3 2 3 3 5 6 9 7 6 6
5 5 8 9 9 9 9 8 9 10 10 10 11 11 10 8 8 7 8 6 4 4 6 7 5 5 3 3 3 3 3 3 4 3 3 3 4 4 5 8 9 9 7
5 6 8 9 10 10 10 9 10 10 11 11 11 11 11 10 10 8 8 7 5 4 6 5 5 4 4 5 4 4 4 4 4 5 4 4 5 5 5 8 10 10 7
5 7 8 9 10 11 11 11 11 10 11 11 11 10 10 8 7 8 7 7 6 6 6 6 6 6 6 5 4 4 5 5 5 6 6 5 6 5 6 6 8 12 9
6 7 8 9 10 11 12 12 12 11 11 11 10 9 9 8 8 8 7 6 6 6 7 7 6 6 6 5 5 5 6 5 6 6 7 6 6 6 6 6 6 8 13
6 7 7 9 9 10 10 11 11 11 10 10 10 8 9 8 8 7 8 7 7 6 7 7 7 6 5 5 5 5 5 6 6 6 7 7 6 6 6 6 7 7 10
5 5 5 6 7 8 9 10 10 10 10 10 9 9 8 8 8 7 8 7 7 7 8 7 7 7 6 6 6 6 7 7 7 7 8 9 8 7 7 7 7 7 8
5 5 5 5 6 7 8 9 9 9 9 9 8 8 8 8 8 7 7 7 7 7 7 7 7 7 7 7 7 7 7 8 8 8 8 9 8 8 8 7 8 8 9
5 4 4 5 5 6 6 7 7 8 7 8 8 7 7 8 8 7 7 7 7 7 6 7 7 7 7 7 7 7 8 8 8 8 9 9 9 10 8 9 9 9 10
3 3 3 3 4 5 6 6 6 6 6 7 7 7 7 7 7 6 6 6 6 6 7 7 7 7 7 7 7 7 8 8 8 8 9 9 10 11 11 10 10 10 10
3 4 4 3 3 4 5 5 5 5 5 6 6 6 6 5 5 5 6 5 6 6 6 6 6 6 6 7 7 7 8 9 9 9 10 11 14 18 16 13 10 10 9
3 4 4 4 4 4 4 5 5 5 5 5 5 5 5 5 5 5 5 5 5 5 6 7 7 7 7 11 13 11 9 9 9 10 10 11 14 18 23 25 24 19 14
4 4 4 4 4 3 4 4 4 4 5 5 4 5 5 5 5 5 5 5 6 6 6 7 7 8 9 13 15 15 10 9 9 10 10 12 12 17 12 18 23 22 25
4 4 4 3 3 3 3 3 4 4 5 4 4 4 5 5 5 5 5 5 5 5 6 7 7 7 9 13 15 16 11 9 10 10 11 11 11 12 14 12 12 12 13
3 3 4 4 3 3 4 5 4 4 4 4 4 4 4 4 5 5 5 5 4 5 6 6 6 7 8 13 15 15 8 9 11 10 10 11 11 20 24 16 13 12 11
3 3 3 3 3 3 5 5 4 4 4 4 3 3 3 4 4 5 5 4 4 5 5 6 6 7 8 13 16 16 7 9 9 9 9 16 18 22 24 15 12 14 13
4 4 4 3 3 4 5 4 4 3 3 3 2 2 2 3 4 4 4 4 4 5 5 7 7 7 9 12 15 16 8 8 9 8 7 8 21 24 25 22 14 19 19
4 4 4 3 3 4 4 4 3 3 3 3 2 2 2 2 2 3 4 4 4 5 6 6 7 6 7 10 13 18 18 16 10 9 7 10 22 25 26 21 21 27 23
5 4 5 4 3 3 4 4 3 3 3 2 2 2 2 2 3 3 4 4 4 5 5 6 7 7 5 8 16 19 20 21 14 11 18 22 26 25 18 22 26 22 11
4 4 5 5 3 3 3 3 3 3 3 2 2 2 2 3 3 3 3 4 4 5 6 6 7 7 6 6 6 7 10 15 14 12 17 23 24 19 19 19 15 9 8
4 5 5 4 4 3 3 3 3 3 2 2 2 2 2 3 3 4 4 5 5 6 7 6 7 8 9 11 17 14 9 8 10 12 9 8 8 8 8 8 9 7 7
5 4 4 4 4 4 3 3 2 2 2 2 2 2 2 3 3 4 5 7 9 14 15 15 15 12 17 22 23 23 23 24 24 17 9 9 9 10 9 9 8 6 6
Wind_Direction
189 175 169 164 166 172 173 172 170 176 169 164 165 165 169 166 162 161 171 174 177 178 178 179 183 137 140 261 320 351 345 331 338 334 317 300 285 267 260 292 313 315 314
187 169 163 165 172 178 179 176 173 174 174 170 167 165 163 168 167 163 174 178 181 181 178 176 173 159 155 282 303 13 343 318 356 355 335 332 332 349 340 319 300 301 316
196 170 169 174 175 179 181 180 174 172 174 166 155 147 139 140 157 173 176 180 182 181 178 179 180 168 167 199 217 208 224 290 315 343 161 322 298 316 300 292 298 311 310
200 176 171 175 179 181 175 176 171 171 174 169 166 167 172 176 182 173 172 182 186 182 177 180 183 176 176 194 210 197 200 213 272 292 237 227 244 283 306 304 304 309 302
188 178 173 175 175 170 167 172 172 174 178 178 177 179 182 180 168 167 175 183 185 178 176 180 180 183 189 195 196 199 219 214 228 243 261 274 275 250 262 288 295 296 286
172 175 164 162 165 162 163 171 177 180 181 184 183 184 185 183 179 179 180 180 175 176 179 181 183 189 187 192 196 204 222 231 238 240 238 241 250 260 263 279 293 294 289
166 177 171 171 171 169 171 179 185 188 187 188 190 191 191 190 190 183 179 177 177 185 189 182 186 191 194 196 198 209 225 230 237 239 243 242 245 251 261 276 287 290 292
170 185 184 181 181 179 179 185 194 195 191 192 195 196 193 192 190 181 176 183 188 189 184 184 190 195 195 199 201 216 227 230 233 243 245 247 249 249 251 261 280 293 292
177 188 188 186 187 186 188 190 195 198 197 194 193 196 194 191 187 181 179 185 185 184 180 183 190 195 196 201 204 219 229 230 233 239 243 246 249 247 249 251 251 270 290
180 188 193 193 193 192 191 191 195 199 199 195 194 196 195 192 183 180 184 185 184 178 175 183 190 196 202 207 212 225 232 236 240 240 246 252 253 252 249 249 250 248 266
187 190 196 193 189 188 188 191 195 198 198 197 195 193 193 188 182 184 187 185 182 177 181 188 194 201 208 212 217 226 232 238 245 247 249 253 254 256 254 252 252 253 257
178 180 187 185 188 192 193 193 194 197 197 193 193 193 190 184 186 190 189 184 183 183 186 189 198 207 213 216 221 232 237 240 247 251 253 258 262 260 257 256 256 256 255
170 178 181 188 195 194 193 194 196 197 191 185 188 189 187 187 191 192 189 185 184 187 191 194 204 213 218 223 227 233 239 242 246 250 254 259 262 265 263 261 262 262 266
171 176 190 201 200 193 190 191 196 190 184 181 185 191 192 190 191 189 186 185 185 192 200 206 211 217 223 229 234 238 243 248 251 253 256 260 260 263 265 266 263 264 265
189 191 199 211 205 195 188 185 188 184 179 180 187 192 186 182 182 185 186 187 192 201 205 212 219 222 227 234 237 240 247 251 257 259 259 262 266 268 271 273 267 262 265
213 196 193 201 206 197 187 183 182 177 169 178 186 181 179 182 186 189 189 193 200 206 211 218 222 227 238 249 253 256 251 251 255 262 264 268 272 275 278 279 280 276 272
209 193 194 195 192 185 177 181 173 159 162 176 180 179 180 186 189 188 191 202 209 214 222 225 227 234 241 252 260 263 265 257 257 261 267 275 277 282 276 279 281 281 279
196 184 177 172 168 160 156 152 145 152 166 179 186 185 185 191 191 195 206 215 217 221 228 233 235 242 250 259 266 270 268 261 259 259 262 268 272 275 281 277 274 268 271
162 155 150 150 152 156 149 143 154 160 172 188 192 187 185 193 198 207 217 222 227 235 237 239 243 248 257 263 269 273 266 262 262 261 264 270 272 281 287 287 282 280 276
125 130 128 132 142 145 136 144 164 167 186 188 181 176 185 199 209 217 225 230 232 240 244 248 247 249 255 266 272 274 267 267 269 267 264 274 280 286 289 287 283 283 281
141 136 135 142 145 137 137 155 165 180 170 144 147 177 202 212 220 227 232 237 243 248 252 256 257 256 262 271 274 279 277 270 274 275 273 271 286 289 290 289 284 283 286
149 145 143 140 129 130 140 158 173 154 126 130 160 200 219 224 228 233 244 243 243 252 259 263 267 263 267 276 281 284 286 288 285 283 280 280 290 292 292 292 288 290 292
161 151 146 139 135 138 145 160 157 125 123 141 191 222 232 237 238 238 246 253 251 254 262 264 271 274 270 276 285 289 290 291 290 285 289 292 295 296 295 292 292 292 289
159 150 146 152 157 144 136 146 137 132 142 181 217 227 239 252 252 249 243 249 252 259 265 269 275 279 279 275 276 275 283 289 290 289 289 293 293 293 291 291 290 281 271
153 148 156 161 159 143 138 134 134 135 162 203 225 241 249 257 264 262 253 258 250 256 269 268 268 278 283 282 289 292 287 283 281 293 288 286 288 284 282 280 278 272 270
146 147 152 153 152 144 140 137 136 148 174 211 237 247 259 266 269 278 289 283 279 285 285 285 286 287 288 294 297 297 298 300 300 301 293 292 290 289 288 288 285 278 271
Height
1498 1500 1502 1505 1508 1511 1513 1516 1518 1521 1524 1527 1529 1531 1534 1536 1537 1539 1540 1541 1542 1542 1543 1542 1542 1542 1541 1540 1539 1538 1536 1534 1532 1529 1526 1524 1523 1521 1520 1520 1519 1517 1515
1494 1495 1498 1500 1503 1506 1509 1511 1514 1517 1520 1522 1525 1528 1530 1532 1534 1536 1537 1538 1539 1539 1540 1539 1539 1539 1538 1537 1536 1535 1533 1532 1530 1528 1524 1521 1519 1519 1518 1517 1515 1513 1512
1490 1491 1493 1496 1499 1502 1504 1507 1509 1512 1516 1519 1522 1525 1527 1529 1530 1531 1533 1534 1535 1536 1536 1536 1536 1536 1535 1534 1533 1532 1531 1529 1528 1527 1525 1522 1518 1515 1512 1511 1510 1509 1507
1486 1488 1489 1492 1495 1498 1501 1504 1506 1509 1512 1514 1517 1519 1521 1523 1524 1527 1529 1530 1531 1532 1532 1533 1533 1532 1532 1531 1530 1529 1528 1526 1525 1524 1522 1522 1519 1515 1508 1506 1506 1504 1502
1483 1485 1486 1488 1491 1494 1497 1500 1502 1505 1507 1510 1512 1515 1517 1519 1521 1523 1525 1526 1527 1528 1528 1529 1529 1528 1528 1527 1526 1525 1524 1523 1521 1520 1518 1517 1515 1513 1509 1501 1498 1497 1496
1481 1482 1484 1486 1488 1491 1493 1496 1498 1501 1503 1506 1508 1510 1512 1514 1517 1518 1519 1521 1522 1523 1524 1524 1524 1524 1524 1523 1522 1521 1520 1519 1517 1516 1514 1513 1511 1508 1506 1500 1494 1490 1488
1479 1480 1482 1483 1485 1487 1489 1491 1494 1496 1498 1501 1503 1505 1507 1510 1512 1513 1514 1516 1517 1518 1519 1519 1520 1520 1519 1519 1518 1517 1515 1514 1513 1511 1510 1508 1506 1504 1501 1497 1490 1485 1481
1477 1478 1479 1480 1481 1483 1485 1487 1489 1491 1493 1495 1498 1500 1503 1505 1507 1508 1509 1510 1511 1513 1514 1514 1515 1515 1514 1514 1513 1512 1510 1509 1507 1506 1504 1502 1500 1499 1496 1493 1488 1480 1473
1476 1476 1477 1477 1478 1479 1480 1482 1484 1486 1488 1491 1493 1495 1498 1500 1501 1503 1504 1505 1506 1508 1508 1509 1509 1509 1509 1508 1507 1506 1505 1503 1502 1500 1498 1496 1494 1492 1490 1488 1485 1481 1470
1474 1474 1475 1475 1475 1476 1477 1478 1480 1481 1484 1486 1488 1490 1492 1494 1496 1498 1499 1500 1501 1502 1503 1503 1504 1503 1503 1502 1501 1500 1499 1498 1496 1494 1492 1490 1488 1485 1483 1481 1479 1475 1469
1471 1472 1472 1472 1473 1473 1473 1474 1475 1477 1479 1481 1483 1485 1486 1489 1490 1492 1493 1494 1495 1496 1497 1497 1498 1497 1497 1496 1495 1494 1493 1491 1489 1487 1485 1483 1481 1478 1476 1473 1471 1468 1464
1468 1468 1468 1469 1469 1469 1470 1470 1471 1472 1474 1476 1478 1479 1481 1483 1484 1486 1487 1489 1489 1490 1491 1491 1491 1491 1491 1490 1489 1487 1486 1484 1482 1480 1478 1476 1473 1470 1468 1465 1462 1459 1456
1464 1465 1465 1465 1465 1466 1466 1466 1467 1468 1469 1471 1473 1474 1476 1477 1479 1480 1482 1483 1483 1484 1485 1485 1485 1485 1484 1483 1482 1481 1479 1477 1475 1473 1471 1468 1466 1462 1460 1457 1453 1450 1448
1461 1461 1462 1462 1462 1462 1462 1462 1463 1464 1465 1466 1468 1469 1471 1472 1474 1475 1476 1477 1477 1478 1478 1479 1479 1478 1478 1477 1476 1474 1472 1470 1468 1465 1463 1460 1458 1454 1451 1448 1445 1442 1439
1458 1458 1458 1458 1458 1458 1459 1459 1459 1460 1461 1462 1463 1464 1466 1468 1469 1470 1470 1471 1472 1472 1472 1472 1472 1472 1471 1470 1469 1467 1464 1462 1459 1457 1455 1452 1449 1446 1444 1440 1437 1434 1430
1454 1454 1454 1455 1455 1455 1455 1455 1455 1456 1457 1458 1459 1460 1462 1463 1464 1464 1465 1465 1466 1466 1466 1466 1465 1465 1464 1463 1462 1460 1456 1454 1451 1448 1445 1443 1440 1437 1435 1432 1429 1427 1423
1450 1450 1451 1451 1451 1451 1451 1451 1452 1452 1453 1454 1455 1456 1456 1457 1458 1459 1459 1459 1459 1459 1459 1459 1458 1457 1457 1456 1454 1452 1449 1446 1442 1439 1436 1434 1431 1429 1425 1422 1419 1417 1415
1446 1446 1447 1447 1448 1448 1448 1448 1449 1449 1449 1450 1450 1451 1452 1452 1453 1454 1454 1454 1453 1453 1452 1452 1451 1450 1449 1448 1446 1444 1441 1437 1434 1431 1428 1425 1422 1420 1417 1413 1409 1406 1404
1442 1443 1443 1444 1444 1444 1444 1445 1445 1445 1446 1446 1446 1447 1447 1448 1448 1448 1448 1448 1447 1447 1446 1446 1445 1443 1441 1440 1438 1436 1432 1428 1425 1423 1420 1417 1414 1411 1409 1405 1400 1396 1394
1439 1439 1440 1440 1440 1440 1441 1441 1441 1442 1442 1442 1443 1443 1443 1443 1443 1443 1443 1442 1442 1441 1440 1439 1438 1436 1434 1432 1431 1429 1425 1420 1416 1414 1411 1409 1406 1403 1400 1397 1392 1388 1384
1435 1435 1436 1436 1436 1437 1437 1437 1438 1438 1439 1439 1439 1439 1439 1439 1438 1438 1437 1437 1436 1434 1433 1432 1430 1429 1427 1425 1423 1421 1418 1413 1408 1405 1402 1399 1397 1394 1391 1389 1385 1380 1377
1431 1431 1432 1432 1432 1433 1434 1434 1434 1435 1435 1435 1435 1435 1435 1434 1433 1433 1432 1431 1430 1428 1426 1424 1422 1421 1419 1417 1415 1412 1410 1406 1402 1397 1393 1390 1388 1385 1382 1379 1375 1373 1370
1427 1427 1428 1428 1429 1430 1430 1430 1431 1431 1431 1431 1431 1431 1430 1429 1429 1428 1426 1425 1424 1422 1420 1417 1414 1412 1411 1409 1407 1404 1401 1398 1394 1389 1385 1382 1379 1376 1372 1369 1367 1364 1361
1423 1423 1424 1424 1425 1426 1426 1427 1427 1427 1427 1427 1427 1426 1425 1424 1423 1422 1421 1420 1418 1416 1413 1411 1408 1404 1402 1400 1397 1394 1391 1388 1385 1380 1376 1373 1370 1367 1363 1360 1358 1355 1353
1419 1419 1420 1421 1421 1422 1423 1423 1423 1423 1423 1423 1422 1422 1421 1419 1418 1416 1415 1414 1412 1411 1408 1405 1402 1398 1393 1392 1390 1387 1383 1380 1376 1372 1368 1364 1361 1357 1354 1352 1349 1347 1345
1415 1416 1416 1417 1418 1418 1419 1420 1420 1420 1419 1418 1418 1417 1415 1414 1412 1410 1408 1406 1406 1403 1401 1398 1396 1391 1388 1385 1382 1379 1376 1372 1369 1365 1360 1356 1353 1350 1347 1345 1342 1340 1339